Weather in Kobyay

Russia / Sakha (Yakutia) Republic     63°34′33″N   126°30′12″E
temp.,
°C
wind,
m/s
gust,
m/s
humid.,
%
clouds,
%
prec.,
mm/h
press.,
hPa
HPBL,
m
12 april, mon
mon1200:00−16wsw1198100 0.0 102112
03:00−22sw1110070 0.0 10229
06:00−25sw1110096 0.0 10239
09:00−12wsw009189 0.0 1023201
12:00−7nne118398 0.0 1022699
15:00−6n2275100 0.1 1021839
18:00−7nnw238618 0.1 1021392
21:00−17w119931 0.1 10229
13 april, tue
tue1300:00−21sw1110068 0.0 10229
03:00−23ssw21100100 0.0 10219
06:00−24ssw11100100 0.0 102111
09:00−10sw129298 0.0 1019242
12:00−6s2278100 0.0 1017799
15:00−4sse2373100 0.1 10151094
18:00−4s248395 0.1 1014407
21:00−12se229799 0.1 101434
14 april, wed
wed1400:00−16se239859 0.0 101345
03:00−18se2510083 0.0 101268
06:00−16ese399987 0.0 1011150
09:00−9ese4891100 0.0 1010383
12:00−4se4682100 0.1 10081037
15:00−2sse3578100 0.4 10071079
18:00−2se2586100 0.4 1006496
21:00−7ese389575 0.7 1006164
15 april, thu
thu1500:00−9ese279598 0.0 1005127
03:00−13ese249799 0.0 100461
06:00−14ese2497100 0.0 100475
09:00−7ese2391100 0.0 1004224
12:00−3se1190100 0.3 1004559
15:00−2nw1287100 0.4 1005496
18:00−2nw2389100 0.2 1006438
21:00−5e0097100 0.3 100810
16 april, fri
fri1600:00−7se119896 0.0 100913
03:00−12se2410080 0.0 101049
06:00−8ese4999100 0.0 1010203
09:00−5se469188 1.3 1011349
12:00−1sse458598 0.1 1011927
15:000sse479281 0.6 1010773
18:000sse48855 0.2 1009726
21:00−3se41289100 0.6 1008297